Simbrief Flight Plan

Flight Plan Options
Generated Flight Plan
Copies the generated flight plan to your device clipboard. Go to Infinite Flight, go to the map, press on the search box, long press in the popup text box and select paste, press ok.

Copies the URL to your clipboard for sharing.

Please login in order to save your plan to fpltoif.

New Flight

Flight Plan Summary

  Departure Arrival
Airport Code KBHB CYYR
Elevation 83 160
Planned Runway 22 34
Current Weather 2020/06/04 08:38
KBHB 040838Z AUTO 00000KT 1/4SM FG OVC003 09/09 A2968 RMK AO2 RVRNO
2020/06/04 08:39
CYYR 040839Z 16009KT 15SM BKN021 OVC055 07/04 A2955 RMK SC7SC1 SLP010
SID/STAR (SID) (STAR)
Aircraft TBM 900
Flight Level 29,000
Plan Distance 719 NM
Flight Time 2:42
Block Fuel 797
V-Speeds (KIAS) V1=    VR=    V2=
V-Speeds are not available with certain aircraft. When using Simbrief Classic, please change plan fomat to JBU
Climb Profile 170/40
Descent Profile 2000FPM
Passenger Count 5
Cargo Weight 0
Notes
System Remarks

Flight Plan Details

Waypoint
Stage
Status
IF FPL
Altitude
Airspeed
Mach Speed
VS to Next
Rem Dist
Delete
WPT
Add SID/STAR Waypoints

You can automatically add published SID/STARs into your plan. Select the SID and/or STAR you wish and press the insert button. The recommended SID/STAR for the runway is shown as a guide. Not all airports have SID/STARs available. SID/STAR waypoints that are already in the genereated plan will be ignored.

Due to different versions between SimBrief and the SID/STAR source names may not match 100%. For example, JASPA5 may be the same as JASPA7 if 5 does not exist.

Select SID
Recommended:
22
Select STAR
Recommended:
34
 
Add Waypoints
Enter in your waypoint, press validate. The system will identify if there are duplicates in the world and show you a list of available waypoints. Select the one you wish to add and which waypoint to add it after.
Search for Waypoint
Select Waypoint
Add after:
 
Airport Diagrams
Airport diagram availability may be limited to North America only.
KBHB
CYYR
Route Map
Vertical Profile Map

This flight plan is for the use in ForeFlight.

ForeFlight Compatible Plan